Back to catalog

COSMOS 2251 DEB

AliveLEO
NORAD 36060·DEBRIS·🇷🇺 Russia

Launched Jun 16, 1993 from Plesetsk Cosmodrome

Loading…

Next Passes (next 24 hours)

TLE

FreshSource: Space-Track

Epoch: Sep 14, 2026, 05:11 UTC

1 36060U 93036AXX 26257.21626540  .00000547  00000-0  17287-3 0  9998
2 36060  74.0270  83.4510 0014562 119.0923 241.1693 14.42508937889814

Track COSMOS 2251 DEB in real time with AllMySat

Download on the App Store